TB1YZC-13 Weather Reports


time (UTC)temp
C
wind
direction
speed
KPH
gust
KPH
rain 1hr
cm
rain 24hr
cm
rain mn
cm
humidity
%
barometer
mb
20260510045540 19 0 0.0 0.0 0.00 0.00 0.00 57 993.8
20260510045039 18 0 0.0 0.0 0.00 0.00 0.00 60 993.8
20260510044538 18 0 0.0 0.0 0.00 0.00 0.00 60 993.7
20260510044036 18 0 0.0 0.0 0.00 0.00 0.00 59 993.7
20260510043535 17 0 0.0 0.0 0.00 0.00 0.00 63 993.8
20260510043034 18 0 0.0 0.0 0.00 0.00 0.00 57 993.7
20260510042532 18 0 0.0 0.0 0.00 0.00 0.00 54 993.7
20260510042031 18 0 0.0 0.0 0.00 0.00 0.00 55 993.7
20260510041529 17 0 0.0 0.0 0.00 0.00 0.00 61 993.6
20260510041027 16 0 0.0 0.0 0.00 0.00 0.00 62 993.5
20260510040526 15 0 0.0 0.0 0.00 0.00 0.00 64 993.5
20260510040025 15 0 0.0 0.0 0.00 0.00 0.00 65 993.5
20260510035524 15 0 0.0 0.0 0.00 0.00 0.00 67 993.6
20260510035022 15 0 0.0 0.0 0.00 0.00 0.00 64 993.5
20260510034520 15 0 0.0 0.0 0.00 0.00 0.00 64 993.6
20260510034019 15 0 0.0 0.0 0.00 0.00 0.00 67 993.7
20260510033517 15 0 0.0 0.0 0.00 0.00 0.00 66 993.7
20260510033016 15 0 0.0 0.0 0.00 0.00 0.00 66 993.7
20260510032515 15 0 0.0 0.0 0.00 0.00 0.00 66 993.6
20260510032013 15 0 0.0 0.0 0.00 0.00 0.00 67 993.6
20260510031511 15 0 0.0 0.0 0.00 0.00 0.00 66 993.6
20260510031010 14 0 0.0 0.0 0.00 0.00 0.00 67 993.5
20260510030508 14 0 0.0 0.0 0.00 0.00 0.00 67 993.5
20260510030007 15 0 0.0 0.0 0.00 0.00 0.00 67 993.4
20260510025505 15 0 0.0 0.0 0.00 0.00 0.00 66 993.5
20260510025004 14 0 0.0 0.0 0.00 0.00 0.00 68 993.5
20260510024503 15 0 0.0 0.0 0.00 0.00 0.00 66 993.4
20260510024001 15 0 0.0 0.0 0.00 0.00 0.00 65 993.3
20260510023500 15 0 0.0 0.0 0.00 0.00 0.00 65 993.4
20260510022959 15 0 0.0 0.0 0.00 0.00 0.00 66 993.4
20260510022457 15 0 0.0 0.0 0.00 0.00 0.00 66 993.3
20260510021956 16 0 0.0 0.0 0.00 0.00 0.00 63 993.2
20260510021454 15 0 0.0 0.0 0.00 0.00 0.00 67 993.2
20260510020953 16 0 0.0 0.0 0.00 0.00 0.00 62 993.1
20260510020452 14 0 0.0 0.0 0.00 0.00 0.00 68 993.1
20260510015950 16 0 0.0 0.0 0.00 0.00 0.00 63 993.0
20260510015448 15 0 0.0 0.0 0.00 0.00 0.00 68 992.9
20260510014947 15 0 0.0 0.0 0.00 0.00 0.00 65 993.0
20260510014445 15 0 0.0 0.0 0.00 0.00 0.00 65 992.9
20260510013944 16 0 0.0 0.0 0.00 0.00 0.00 63 993.0
20260510013443 15 0 0.0 0.0 0.00 0.00 0.00 65 992.9
20260510012941 16 0 0.0 0.0 0.00 0.00 0.00 64 992.8
20260510012440 15 0 0.0 0.0 0.00 0.00 0.00 65 992.9
20260510011939 16 0 0.0 0.0 0.00 0.00 0.00 61 992.9
20260510011437 15 0 0.0 0.0 0.00 0.00 0.00 62 992.8
20260510010936 16 0 0.0 0.0 0.00 0.00 0.00 59 992.9
20260510010434 16 0 0.0 0.0 0.00 0.00 0.00 60 992.9
20260510005933 16 0 0.0 0.0 0.00 0.00 0.00 60 992.9
20260510005431 16 0 0.0 0.0 0.00 0.00 0.00 60 993.1
20260510004930 16 0 0.0 0.0 0.00 0.00 0.00 60 993.1
20260510004428 16 0 0.0 0.0 0.00 0.00 0.00 60 993.1
20260510003928 16 0 0.0 0.0 0.00 0.00 0.00 60 993.0
20260510003425 16 0 0.0 0.0 0.00 0.00 0.00 60 993.0
20260510002925 17 0 0.0 0.0 0.00 0.00 0.00 58 992.8
20260510002423 18 0 0.0 0.0 0.00 0.00 0.00 56 992.8
20260510001921 17 0 0.0 0.0 0.00 0.00 0.00 56 992.7
20260510001419 17 0 0.0 0.0 0.00 0.00 0.00 55 992.8
20260510000918 17 0 0.0 0.0 0.00 0.00 0.00 57 992.9
20260510000418 17 0 0.0 0.0 0.00 0.00 0.00 57 992.9
20260509235915 17 0 0.0 0.0 0.00 0.00 0.00 57 993.0
20260509235413 18 0 0.0 0.0 0.00 0.00 0.00 56 992.9
20260509234912 17 0 0.0 0.0 0.00 0.00 0.00 58 992.9
20260509234411 17 0 0.0 0.0 0.00 0.00 0.00 58 992.9
20260509233909 17 0 0.0 0.0 0.00 0.00 0.00 60 993.0
20260509233407 17 0 0.0 0.0 0.00 0.00 0.00 59 993.0
20260509232906 18 0 0.0 0.0 0.00 0.00 0.00 55 993.0
20260509232405 18 0 0.0 0.0 0.00 0.00 0.00 57 993.1
20260509231903 17 0 0.0 0.0 0.00 0.00 0.00 56 993.2
20260509231402 18 0 0.0 0.0 0.00 0.00 0.00 55 993.2
20260509230901 19 0 0.0 0.0 0.00 0.00 0.00 53 993.3
20260509230359 18 0 0.0 0.0 0.00 0.00 0.00 56 993.3
20260509225857 18 0 0.0 0.0 0.00 0.00 0.00 55 993.3
20260509225356 18 0 0.0 0.0 0.00 0.00 0.00 55 993.3
20260509224855 18 0 0.0 0.0 0.00 0.00 0.00 56 993.4
20260509224353 18 0 0.0 0.0 0.00 0.00 0.00 55 993.4
20260509223852 18 0 0.0 0.0 0.00 0.00 0.00 56 993.4
20260509223351 18 0 0.0 0.0 0.00 0.00 0.00 55 993.4
20260509222849 18 0 0.0 0.0 0.00 0.00 0.00 55 993.4
20260509222347 18 0 0.0 0.0 0.00 0.00 0.00 56 993.4
20260509221846 18 0 0.0 0.0 0.00 0.00 0.00 56 993.4
20260509221344 18 0 0.0 0.0 0.00 0.00 0.00 56 993.5
20260509220843 20 0 0.0 0.0 0.00 0.00 0.00 54 993.5
20260509220342 19 0 0.0 0.0 0.00 0.00 0.00 55 993.6
20260509215840 19 0 0.0 0.0 0.00 0.00 0.00 54 993.6
20260509215339 20 0 0.0 0.0 0.00 0.00 0.00 54 993.6
20260509214838 18 0 0.0 0.0 0.00 0.00 0.00 58 993.6
20260509214336 19 0 0.0 0.0 0.00 0.00 0.00 56 993.6
20260509214006 18 0 0.0 0.0 0.00 0.00 0.00 60 993.7
20260509213505 18 0 0.0 0.0 0.00 0.00 0.00 61 993.6
20260509213003 18 0 0.0 0.0 0.00 0.00 0.00 60 993.6
20260509212502 18 0 0.0 0.0 0.00 0.00 0.00 58 993.6
20260509212001 18 0 0.0 0.0 0.00 0.00 0.00 58 993.5
20260509211500 20 0 0.0 0.0 0.00 0.00 0.00 56 993.6
20260509210958 18 0 0.0 0.0 0.00 0.00 0.00 61 993.7
20260509210536 18 0 0.0 0.0 0.00 0.00 0.00 60 993.6
20260509210035 18 0 0.0 0.0 0.00 0.00 0.00 61 993.6
20260509205534 20 0 0.0 0.0 0.00 0.00 0.00 56 993.6
20260509205032 19 0 0.0 0.0 0.00 0.00 0.00 59 993.7
20260509204531 18 0 0.0 0.0 0.00 0.00 0.00 61 993.7
20260509204030 19 0 0.0 0.0 0.00 0.00 0.00 59 993.6
20260509203835 19 0 0.0 0.0 0.00 0.00 0.00 58 993.6
20260509203258 19 0 0.0 0.0 0.00 0.00 0.00 59 993.6
20260509202957 20 0 0.0 0.0 0.00 0.00 0.00 58 993.6
20260509202655 20 0 0.0 0.0 0.00 0.00 0.00 58 993.6
20260509202354 20 0 0.0 0.0 0.00 0.00 0.00 56 993.6
20260509202052 19 0 0.0 0.0 0.00 0.00 0.00 58 993.7
20260509201750 26 0 0.0 0.0 0.00 0.00 0.00 52 993.7
20260509201548 27 0 0.0 0.0 0.00 0.00 0.00 49 993.6
20260509201247 27 0 0.0 0.0 0.00 0.00 0.00 51 993.6
20260509200946 26 0 0.0 0.0 0.00 0.00 0.00 54 993.6
20260509200645 26 0 0.0 0.0 0.00 0.00 0.00 55 993.6
20260509200422 26 0 0.0 0.0 0.00 0.00 0.00 55 993.6
20260509200045 25 0 0.0 0.0 0.00 0.00 0.00 56 993.5
20260509195738 26 0 0.0 0.0 0.00 0.00 0.00 51 993.5
20260509195437 26 0 0.0 0.0 0.00 0.00 0.00 53 993.5
20260509195136 26 0 0.0 0.0 0.00 0.00 0.00 53 993.5
20260509194923 26 0 0.0 0.0 0.00 0.00 0.00 53 993.5
20260509194533 26 0 0.0 0.0 0.00 0.00 0.00 53 993.6
20260509194232 25 0 0.0 0.0 0.00 0.00 0.00 55 993.5
20260509193931 26 0 0.0 0.0 0.00 0.00 0.00 53 993.5
20260509193630 26 0 0.0 0.0 0.00 0.00 0.00 54 993.5
20260509193329 26 0 0.0 0.0 0.00 0.00 0.00 54 993.5
20260509193028 26 0 0.0 0.0 0.00 0.00 0.00 56 993.6
20260509192727 25 0 0.0 0.0 0.00 0.00 0.00 58 993.6
20260509191525 26 0 0.0 0.0 0.00 0.00 0.00 55 993.5
20260509190633 19 0 0.0 0.0 0.00 0.00 0.00 58 993.5
20260509190133 20 0 0.0 0.0 0.00 0.00 0.00 57 993.4
20260509185633 19 0 0.0 0.0 0.00 0.00 0.00 58 993.4
20260509185132 20 0 0.0 0.0 0.00 0.00 0.00 58 993.3
20260509184632 19 0 0.0 0.0 0.00 0.00 0.00 59 993.2
20260509184132 20 0 0.0 0.0 0.00 0.00 0.00 57 993.2
20260509183632 20 0 0.0 0.0 0.00 0.00 0.00 55 993.2
20260509183131 20 0 0.0 0.0 0.00 0.00 0.00 56 993.1
20260509182631 19 0 0.0 0.0 0.00 0.00 0.00 57 993.1
20260509182131 19 0 0.0 0.0 0.00 0.00 0.00 58 993.1
20260509181630 20 0 0.0 0.0 0.00 0.00 0.00 55 993.0
20260509181130 20 0 0.0 0.0 0.00 0.00 0.00 56 992.9
20260509180630 19 0 0.0 0.0 0.00 0.00 0.00 57 992.9
20260509180129 20 0 0.0 0.0 0.00 0.00 0.00 57 992.8
20260509175629 19 0 0.0 0.0 0.00 0.00 0.00 57 992.7
20260509174412 20 0 0.0 0.0 0.00 0.00 0.00 56 992.7
20260509174111 20 0 0.0 0.0 0.00 0.00 0.00 55 992.7
20260509173811 20 0 0.0 0.0 0.00 0.00 0.00 54 992.6
20260509173510 20 0 0.0 0.0 0.00 0.00 0.00 54 992.6
20260509173210 21 0 0.0 0.0 0.00 0.00 0.00 52 992.5
20260509171227 26 0 0.0 0.0 0.00 0.00 0.00 47 992.6
20260509170250 27 0 0.0 0.0 0.00 0.00 0.00 40 992.5
20260509165949 26 0 0.0 0.0 0.00 0.00 0.00 45 992.5
20260509165649 26 0 0.0 0.0 0.00 0.00 0.00 45 992.5
20260509165349 28 0 0.0 0.0 0.00 0.00 0.00 38 992.5
20260509165049 28 0 0.0 0.0 0.00 0.00 0.00 38 992.5
20260509164749 28 0 0.0 0.0 0.00 0.00 0.00 39 992.5
20260509164449 28 0 0.0 0.0 0.00 0.00 0.00 39 992.4
20260509164149 26 0 0.0 0.0 0.00 0.00 0.00 43 992.4
20260509163849 26 0 0.0 0.0 0.00 0.00 0.00 43 992.4
20260509163548 26 0 0.0 0.0 0.00 0.00 0.00 43 992.3
20260509163248 27 0 0.0 0.0 0.00 0.00 0.00 42 992.3
20260509162948 26 0 0.0 0.0 0.00 0.00 0.00 44 992.3
20260509162647 25 0 0.0 0.0 0.00 0.00 0.00 46 992.3
20260509162347 26 0 0.0 0.0 0.00 0.00 0.00 44 992.3
20260509162047 26 0 0.0 0.0 0.00 0.00 0.00 44 992.3
20260509161747 26 0 0.0 0.0 0.00 0.00 0.00 42 992.2
20260509161447 26 0 0.0 0.0 0.00 0.00 0.00 44 992.2
20260509161147 26 0 0.0 0.0 0.00 0.00 0.00 46 992.2
20260509160846 27 0 0.0 0.0 0.00 0.00 0.00 42 992.1
20260509160546 27 0 0.0 0.0 0.00 0.00 0.00 44 992.1
20260509160245 27 0 0.0 0.0 0.00 0.00 0.00 43 992.1
20260509155945 26 0 0.0 0.0 0.00 0.00 0.00 44 992.1
20260509155645 27 0 0.0 0.0 0.00 0.00 0.00 43 992.1
20260509155345 28 0 0.0 0.0 0.00 0.00 0.00 41 992.2
20260509155044 27 0 0.0 0.0 0.00 0.00 0.00 43 992.1
20260509154744 27 0 0.0 0.0 0.00 0.00 0.00 43 992.2
20260509154444 26 0 0.0 0.0 0.00 0.00 0.00 45 992.2
20260509154144 26 0 0.0 0.0 0.00 0.00 0.00 45 992.2
20260509153844 26 0 0.0 0.0 0.00 0.00 0.00 45 992.1
20260509153815 26 0 0.0 0.0 0.00 0.00 0.00 45 992.1
20260509153800 26 0 0.0 0.0 0.00 0.00 0.00 46 992.1
20260509153717 26 0 0.0 0.0 0.00 0.00 0.00 47 992.1
20260509153201 27 0 0.0 0.0 0.00 0.00 0.00 44 992.1
20260509152901 26 0 0.0 0.0 0.00 0.00 0.00 47 992.1
20260509152714 25 0 0.0 0.0 0.00 0.00 0.00 50 992.1
20260509151645 27 0 0.0 0.0 0.00 0.00 0.00 43 992.1
20260509151345 27 0 0.0 0.0 0.00 0.00 0.00 44 992.1
20260509151045 27 0 0.0 0.0 0.00 0.00 0.00 44 992.1
20260509150745 26 0 0.0 0.0 0.00 0.00 0.00 45 992.2
20260509150445 26 0 0.0 0.0 0.00 0.00 0.00 44 992.2
20260509150145 26 0 0.0 0.0 0.00 0.00 0.00 45 992.2
20260509145257 27 0 0.0 0.0 0.00 0.00 0.00 41 992.2
20260509144957 26 0 0.0 0.0 0.00 0.00 0.00 45 992.2
20260509144507 22 0 0.0 0.0 0.00 0.00 0.00 46 992.2
20260509144207 22 0 0.0 0.0 0.00 0.00 0.00 47 992.3
20260509143907 23 0 0.0 0.0 0.00 0.00 0.00 46 992.3
20260509143132 26 0 0.0 0.0 0.00 0.00 0.00 45 992.2
20260509135742 101 0 0.0 0.0 0.00 0.00 0.00 100 2147.4
20260509135102 28 0 0.0 0.0 0.00 0.00 0.00 36 992.3
20260509134435 30 0 0.0 0.0 0.00 0.00 0.00 35 992.3
20260509134132 28 0 0.0 0.0 0.00 0.00 0.00 38 992.3
20260509133829 28 0 0.0 0.0 0.00 0.00 0.00 37 992.3
20260509133529 27 0 0.0 0.0 0.00 0.00 0.00 41 992.2